Location: Bern�tre
(50.1974°N, 2.0915°E)
Time: 08:34:30
(UTC+00:00)

Cosmos 1674 - Pass Details

Date: 18 September 2020
Orbit: 494 x 517 km, 82.5° (Epoch: 24 October)

Event Time Altitude Azimuth Distance (km) Brightness Sun altitude
Rises 20:37:21 0° 341° (NNW) 2,655 7.2 -24.6°
Reaches altitude 10° 20:39:40 10° 331° (NNW) 1,762 6.3 -24.9°
Maximum altitude 20:43:04 30° 269° (W) 950 4.4 -25.4°
Enters shadow 20:44:00 27° 242° (WSW) 1,031 4.4 -25.5°
